Year,Month,Day,Hour,Minute,Value (Times are PST for temperature in C)
2016,08,12,00,00,18.40
2016,08,12,00,01,18.40
2016,08,12,00,02,18.40
2016,08,12,00,03,18.40
2016,08,12,00,04,18.40
2016,08,12,00,05,18.40
2016,08,12,00,06,18.40
2016,08,12,00,07,18.40
2016,08,12,00,08,18.40
2016,08,12,00,09,18.40
2016,08,12,00,10,18.40
2016,08,12,00,11,18.40
2016,08,12,00,12,18.40
2016,08,12,00,13,18.40
2016,08,12,00,14,18.40
2016,08,12,00,15,18.30
2016,08,12,00,16,18.30
2016,08,12,00,17,18.30
2016,08,12,00,18,18.30
2016,08,12,00,19,18.30
2016,08,12,00,20,18.30
2016,08,12,00,21,18.30
2016,08,12,00,22,18.30
2016,08,12,00,23,18.20
2016,08,12,00,24,18.20
2016,08,12,00,25,18.20
2016,08,12,00,26,18.20
2016,08,12,00,27,18.20
2016,08,12,00,28,18.20
2016,08,12,00,29,18.20
2016,08,12,00,30,18.20
2016,08,12,00,31,18.20
2016,08,12,00,32,18.10
2016,08,12,00,33,18.10
2016,08,12,00,34,18.10
2016,08,12,00,35,18.00
2016,08,12,00,36,18.00
2016,08,12,00,37,17.90
2016,08,12,00,38,17.90
2016,08,12,00,39,17.90
2016,08,12,00,40,17.80
2016,08,12,00,41,17.80
2016,08,12,00,42,17.80
2016,08,12,00,43,17.80
2016,08,12,00,44,17.70
2016,08,12,00,45,17.70
2016,08,12,00,46,17.70
2016,08,12,00,47,17.70
2016,08,12,00,48,17.60
2016,08,12,00,49,17.60
2016,08,12,00,50,17.60
2016,08,12,00,51,17.60
2016,08,12,00,52,17.60
2016,08,12,00,53,17.50
2016,08,12,00,54,17.50
2016,08,12,00,55,17.50
2016,08,12,00,56,17.50
2016,08,12,00,57,17.50
2016,08,12,00,58,17.50
2016,08,12,00,59,17.50
2016,08,12,01,00,17.40
2016,08,12,01,01,17.40
2016,08,12,01,02,17.40
2016,08,12,01,03,17.40
2016,08,12,01,04,17.40
2016,08,12,01,05,17.40
2016,08,12,01,06,17.40
2016,08,12,01,07,17.40
2016,08,12,01,08,17.30
2016,08,12,01,09,17.30
2016,08,12,01,10,17.30
2016,08,12,01,11,17.30
2016,08,12,01,12,17.30
2016,08,12,01,13,17.30
2016,08,12,01,14,17.30
2016,08,12,01,15,17.30
2016,08,12,01,16,17.30
2016,08,12,01,17,17.30
2016,08,12,01,18,17.30
2016,08,12,01,19,17.30
2016,08,12,01,20,17.30
2016,08,12,01,21,17.30
2016,08,12,01,22,17.30
2016,08,12,01,23,17.30
2016,08,12,01,24,17.30
2016,08,12,01,25,17.30
2016,08,12,01,26,17.30
2016,08,12,01,27,17.30
2016,08,12,01,28,17.30
2016,08,12,01,29,17.30
2016,08,12,01,30,17.30
2016,08,12,01,31,17.30
2016,08,12,01,32,17.30
2016,08,12,01,33,17.30
2016,08,12,01,34,17.30
2016,08,12,01,35,17.30
2016,08,12,01,36,17.30
2016,08,12,01,37,17.30
2016,08,12,01,38,17.30
2016,08,12,01,39,17.30
2016,08,12,01,40,17.20
2016,08,12,01,41,17.20
2016,08,12,01,42,17.20
2016,08,12,01,43,17.20
2016,08,12,01,44,17.20
2016,08,12,01,45,17.20
2016,08,12,01,46,17.20
2016,08,12,01,47,17.20
2016,08,12,01,48,17.20
2016,08,12,01,49,17.20
2016,08,12,01,50,17.20
2016,08,12,01,51,17.20
2016,08,12,01,52,17.20
2016,08,12,01,53,17.10
2016,08,12,01,54,17.10
2016,08,12,01,55,17.10
2016,08,12,01,56,17.10
2016,08,12,01,57,17.10
2016,08,12,01,58,17.10
2016,08,12,01,59,17.10
2016,08,12,02,00,17.10
2016,08,12,02,01,17.10
2016,08,12,02,02,17.10
2016,08,12,02,03,17.10
2016,08,12,02,04,17.10
2016,08,12,02,05,17.10
2016,08,12,02,06,17.10
2016,08,12,02,07,17.00
2016,08,12,02,08,17.00
2016,08,12,02,09,17.00
2016,08,12,02,10,17.00
2016,08,12,02,11,16.90
2016,08,12,02,12,16.90
2016,08,12,02,13,16.90
2016,08,12,02,14,16.90
2016,08,12,02,15,16.90
2016,08,12,02,16,16.90
2016,08,12,02,17,16.90
2016,08,12,02,18,16.90
2016,08,12,02,19,16.90
2016,08,12,02,20,16.90
2016,08,12,02,21,16.80
2016,08,12,02,22,16.80
2016,08,12,02,23,16.80
2016,08,12,02,24,16.80
2016,08,12,02,25,16.70
2016,08,12,02,26,16.70
2016,08,12,02,27,16.70
2016,08,12,02,28,16.70
2016,08,12,02,29,16.60
2016,08,12,02,30,16.60
2016,08,12,02,31,16.60
2016,08,12,02,32,16.50
2016,08,12,02,33,16.50
2016,08,12,02,34,16.40
2016,08,12,02,35,16.40
2016,08,12,02,36,16.40
2016,08,12,02,37,16.40
2016,08,12,02,38,16.30
2016,08,12,02,39,16.30
2016,08,12,02,40,16.20
2016,08,12,02,41,16.20
2016,08,12,02,42,16.20
2016,08,12,02,43,16.10
2016,08,12,02,44,16.10
2016,08,12,02,45,16.00
2016,08,12,02,46,16.00
2016,08,12,02,47,15.90
2016,08,12,02,48,15.90
2016,08,12,02,49,15.80
2016,08,12,02,50,15.80
2016,08,12,02,51,15.70
2016,08,12,02,52,15.70
2016,08,12,02,53,15.70
2016,08,12,02,54,15.60
2016,08,12,02,55,15.60
2016,08,12,02,56,15.50
2016,08,12,02,57,15.50
2016,08,12,02,58,15.50
2016,08,12,02,59,15.50
2016,08,12,03,00,15.40
2016,08,12,03,01,15.40
2016,08,12,03,02,15.40
2016,08,12,03,03,15.40
2016,08,12,03,04,15.40
2016,08,12,03,05,15.40
2016,08,12,03,06,15.40
2016,08,12,03,07,15.40
2016,08,12,03,08,15.40
2016,08,12,03,09,15.30
2016,08,12,03,10,15.30
2016,08,12,03,11,15.30
2016,08,12,03,12,15.30
2016,08,12,03,13,15.30
2016,08,12,03,14,15.30
2016,08,12,03,15,15.30
2016,08,12,03,16,15.30
2016,08,12,03,17,15.30
2016,08,12,03,18,15.30
2016,08,12,03,19,15.30
2016,08,12,03,20,15.30
2016,08,12,03,21,15.30
2016,08,12,03,22,15.30
2016,08,12,03,23,15.30
2016,08,12,03,24,15.30
2016,08,12,03,25,15.30
2016,08,12,03,26,15.20
2016,08,12,03,27,15.30
2016,08,12,03,28,15.30
2016,08,12,03,29,15.30
2016,08,12,03,30,15.30
2016,08,12,03,31,15.30
2016,08,12,03,32,15.30
2016,08,12,03,33,15.30
2016,08,12,03,34,15.30
2016,08,12,03,35,15.30
2016,08,12,03,36,15.30
2016,08,12,03,37,15.30
2016,08,12,03,38,15.30
2016,08,12,03,39,15.30
2016,08,12,03,40,15.30
2016,08,12,03,41,15.40
2016,08,12,03,42,15.40
2016,08,12,03,43,15.40
2016,08,12,03,44,15.40
2016,08,12,03,45,15.50
2016,08,12,03,46,15.50
2016,08,12,03,47,15.50
2016,08,12,03,48,15.50
2016,08,12,03,49,15.60
2016,08,12,03,50,15.60
2016,08,12,03,51,15.60
2016,08,12,03,52,15.60
2016,08,12,03,53,15.60
2016,08,12,03,54,15.70
2016,08,12,03,55,15.70
2016,08,12,03,56,15.70
2016,08,12,03,57,15.70
2016,08,12,03,58,15.70
2016,08,12,03,59,15.70
2016,08,12,04,00,15.70
2016,08,12,04,01,15.70
2016,08,12,04,02,15.70
2016,08,12,05,04,15.60
2016,08,12,05,05,15.60
2016,08,12,05,06,15.60
2016,08,12,05,07,15.60
2016,08,12,05,08,15.60
2016,08,12,05,09,15.60
2016,08,12,05,10,15.50
2016,08,12,05,11,15.50
2016,08,12,05,12,15.50
2016,08,12,05,13,15.50
2016,08,12,05,14,15.50
2016,08,12,05,15,15.40
2016,08,12,05,16,15.40
2016,08,12,05,17,15.40
2016,08,12,05,18,15.30
2016,08,12,05,19,15.30
2016,08,12,05,20,15.30
2016,08,12,05,21,15.20
2016,08,12,05,22,15.20
2016,08,12,05,23,15.20
2016,08,12,05,24,15.20
2016,08,12,05,25,15.10
2016,08,12,05,26,15.10
2016,08,12,05,27,15.10
2016,08,12,05,28,15.10
2016,08,12,05,29,15.10
2016,08,12,05,30,15.10
2016,08,12,05,31,15.10
2016,08,12,05,32,15.10
2016,08,12,05,33,15.00
2016,08,12,05,34,15.00
2016,08,12,05,35,15.00
2016,08,12,05,36,15.00
2016,08,12,05,37,14.90
2016,08,12,05,38,14.90
2016,08,12,05,39,14.90
2016,08,12,05,40,14.90
2016,08,12,05,41,14.90
2016,08,12,05,42,14.80
2016,08,12,05,43,14.80
2016,08,12,05,44,14.80
2016,08,12,05,45,14.80
2016,08,12,05,46,14.80
2016,08,12,05,47,14.70
2016,08,12,05,48,14.70
2016,08,12,05,49,14.70
2016,08,12,05,50,14.70
2016,08,12,05,51,14.70
2016,08,12,05,52,14.70
2016,08,12,05,53,14.70
2016,08,12,05,54,14.70
2016,08,12,05,55,14.70
2016,08,12,05,56,14.70
2016,08,12,05,57,14.70
2016,08,12,05,58,14.60
2016,08,12,05,59,14.60
2016,08,12,06,00,14.60
2016,08,12,06,01,14.60
2016,08,12,06,02,14.60
2016,08,12,06,03,14.60
2016,08,12,06,04,14.70
2016,08,12,06,05,14.70
2016,08,12,06,06,14.70
2016,08,12,06,07,14.70
2016,08,12,06,08,14.70
2016,08,12,06,09,14.80
2016,08,12,06,10,14.80
2016,08,12,06,11,14.80
2016,08,12,06,12,14.80
2016,08,12,06,13,14.90
2016,08,12,06,14,14.90
2016,08,12,06,15,14.90
2016,08,12,06,16,14.90
2016,08,12,06,17,15.00
2016,08,12,06,18,15.00
2016,08,12,06,19,15.00
2016,08,12,06,20,15.00
2016,08,12,06,21,15.10
2016,08,12,06,22,15.10
2016,08,12,06,23,15.10
2016,08,12,06,24,15.10
2016,08,12,06,25,15.10
2016,08,12,06,26,15.10
2016,08,12,06,27,15.10
2016,08,12,06,28,15.10
2016,08,12,06,29,15.10
2016,08,12,06,30,15.10
2016,08,12,06,31,15.00
2016,08,12,06,32,15.00
2016,08,12,06,33,15.00
2016,08,12,06,34,15.00
2016,08,12,06,35,14.90
2016,08,12,06,36,14.90
2016,08,12,06,37,14.90
2016,08,12,06,38,14.90
2016,08,12,06,39,14.90
2016,08,12,06,40,14.90
2016,08,12,06,41,15.00
2016,08,12,06,42,15.00
2016,08,12,06,43,15.00
2016,08,12,06,44,15.00
2016,08,12,06,45,15.10
2016,08,12,06,46,15.10
2016,08,12,06,47,15.10
2016,08,12,06,48,15.10
2016,08,12,06,49,15.20
2016,08,12,06,50,15.20
2016,08,12,06,51,15.20
2016,08,12,06,52,15.30
2016,08,12,06,53,15.30
2016,08,12,06,54,15.30
2016,08,12,06,55,15.30
2016,08,12,06,56,15.40
2016,08,12,06,57,15.40
2016,08,12,06,58,15.40
2016,08,12,06,59,15.40
2016,08,12,07,00,15.40
2016,08,12,07,01,15.40
2016,08,12,07,02,15.40
2016,08,12,07,03,15.40
2016,08,12,07,04,15.40
2016,08,12,07,05,15.50
2016,08,12,07,06,15.50
2016,08,12,07,07,15.50
2016,08,12,07,08,15.50
2016,08,12,07,09,15.60
2016,08,12,07,10,15.60
2016,08,12,07,11,15.60
2016,08,12,07,12,15.60
2016,08,12,07,13,15.70
2016,08,12,07,14,15.70
2016,08,12,07,15,15.70
2016,08,12,07,16,15.80
2016,08,12,07,17,15.80
2016,08,12,07,18,15.80
2016,08,12,07,19,15.90
2016,08,12,07,20,15.90
2016,08,12,07,21,15.90
2016,08,12,07,22,16.00
2016,08,12,07,23,16.00
2016,08,12,07,24,16.10
2016,08,12,07,25,16.10
2016,08,12,07,26,16.20
2016,08,12,07,27,16.30
2016,08,12,07,28,16.30
2016,08,12,07,29,16.40
2016,08,12,07,30,16.50
2016,08,12,07,31,16.50
2016,08,12,07,32,16.60
2016,08,12,07,33,16.70
2016,08,12,07,34,16.70
2016,08,12,07,35,16.80
2016,08,12,07,36,16.90
2016,08,12,07,37,16.90
2016,08,12,07,38,17.00
2016,08,12,07,39,17.20
2016,08,12,07,40,17.20
2016,08,12,07,41,17.30
2016,08,12,07,42,17.40
2016,08,12,07,43,17.50
2016,08,12,07,44,17.60
2016,08,12,07,45,17.70
2016,08,12,07,46,17.80
2016,08,12,07,47,17.90
2016,08,12,07,48,17.90
2016,08,12,07,49,18.00
2016,08,12,07,50,18.10
2016,08,12,07,51,18.10
2016,08,12,07,52,18.20
2016,08,12,07,53,18.30
2016,08,12,07,54,18.30
2016,08,12,07,55,18.40
2016,08,12,07,56,18.50
2016,08,12,07,57,18.60
2016,08,12,07,58,18.70
2016,08,12,07,59,18.70
2016,08,12,08,00,18.80
2016,08,12,08,01,18.90
2016,08,12,08,02,18.90
2016,08,12,08,03,19.00
2016,08,12,08,04,19.10
2016,08,12,08,05,19.20
2016,08,12,08,06,19.20
2016,08,12,08,07,19.30
2016,08,12,08,08,19.40
2016,08,12,08,09,19.40
2016,08,12,08,10,19.50
2016,08,12,08,11,19.60
2016,08,12,08,12,19.60
2016,08,12,08,13,19.60
2016,08,12,08,14,19.70
2016,08,12,08,15,19.70
2016,08,12,08,16,19.80
2016,08,12,08,17,19.80
2016,08,12,08,18,19.80
2016,08,12,08,19,19.90
2016,08,12,08,20,19.90
2016,08,12,08,21,20.00
2016,08,12,08,22,20.00
2016,08,12,08,23,20.10
2016,08,12,08,24,20.20
2016,08,12,08,25,20.20
2016,08,12,08,26,20.30
2016,08,12,08,27,20.30
2016,08,12,08,28,20.30
2016,08,12,08,29,20.40
2016,08,12,08,30,20.40
2016,08,12,08,31,20.50
2016,08,12,08,32,20.50
2016,08,12,08,33,20.50
2016,08,12,08,34,20.50
2016,08,12,08,35,20.60
2016,08,12,08,36,20.60
2016,08,12,08,37,20.60
2016,08,12,08,38,20.60
2016,08,12,08,39,20.60
2016,08,12,08,40,20.60
2016,08,12,08,41,20.60
2016,08,12,08,42,20.60
2016,08,12,08,43,20.60
2016,08,12,08,44,20.60
2016,08,12,08,45,20.60
2016,08,12,08,46,20.60
2016,08,12,08,47,20.60
2016,08,12,08,48,20.60
2016,08,12,08,49,20.60
2016,08,12,08,50,20.60
2016,08,12,08,51,20.60
2016,08,12,08,52,20.60
2016,08,12,08,53,20.70
2016,08,12,08,54,20.70
2016,08,12,08,55,20.70
2016,08,12,08,56,20.70
2016,08,12,08,57,20.70
2016,08,12,08,58,20.70
2016,08,12,08,59,20.70
2016,08,12,09,00,20.70
2016,08,12,09,01,20.70
2016,08,12,09,02,20.70
2016,08,12,09,03,20.70
2016,08,12,09,04,20.70
2016,08,12,09,05,20.70
2016,08,12,09,06,20.80
2016,08,12,09,07,20.80
2016,08,12,09,08,20.80
2016,08,12,09,09,20.90
2016,08,12,09,10,21.00
2016,08,12,09,11,21.00
2016,08,12,09,12,21.10
2016,08,12,09,13,21.10
2016,08,12,09,14,21.10
2016,08,12,09,15,21.20
2016,08,12,09,16,21.20
2016,08,12,09,17,21.20
2016,08,12,09,18,21.20
2016,08,12,09,19,21.20
2016,08,12,09,20,21.20
2016,08,12,09,21,21.30
2016,08,12,09,22,21.30
2016,08,12,09,23,21.30
2016,08,12,09,24,21.30
2016,08,12,09,25,21.30
2016,08,12,09,26,21.30
2016,08,12,09,27,21.30
2016,08,12,09,28,21.30
2016,08,12,09,29,21.30
2016,08,12,09,30,21.30
2016,08,12,09,31,21.30
2016,08,12,09,32,21.40
2016,08,12,09,33,21.40
2016,08,12,09,34,21.40
2016,08,12,09,35,21.40
2016,08,12,09,36,21.40
2016,08,12,09,37,21.50
2016,08,12,09,38,21.50
2016,08,12,09,39,21.60
2016,08,12,09,40,21.60
2016,08,12,09,41,21.60
2016,08,12,09,42,21.60
2016,08,12,09,43,21.60
2016,08,12,09,44,21.60
2016,08,12,09,45,21.60
2016,08,12,09,46,21.60
2016,08,12,09,47,21.60
2016,08,12,09,48,21.60
2016,08,12,09,49,21.60
2016,08,12,09,50,21.60
2016,08,12,09,51,21.70
2016,08,12,09,52,21.70
2016,08,12,09,53,21.70
2016,08,12,09,54,21.80
2016,08,12,09,55,21.80
2016,08,12,09,56,21.90
2016,08,12,09,57,21.90
2016,08,12,09,58,21.90
2016,08,12,09,59,21.90
2016,08,12,10,00,21.90
2016,08,12,10,01,22.00
2016,08,12,10,02,22.00
2016,08,12,10,03,22.00
2016,08,12,10,04,22.00
2016,08,12,10,05,21.90
2016,08,12,10,06,21.90
2016,08,12,10,07,21.80
2016,08,12,10,08,21.80
2016,08,12,10,09,21.80
2016,08,12,10,10,21.80
2016,08,12,10,11,21.90
2016,08,12,10,12,21.90
2016,08,12,10,13,21.90
2016,08,12,10,14,21.90
2016,08,12,10,15,21.90
2016,08,12,10,16,21.90
2016,08,12,10,17,21.90
2016,08,12,10,18,21.90
2016,08,12,10,19,22.00
2016,08,12,10,20,22.00
2016,08,12,10,21,22.00
2016,08,12,10,22,22.10
2016,08,12,10,23,22.10
2016,08,12,10,24,22.10
2016,08,12,10,25,22.10
2016,08,12,10,26,22.10
2016,08,12,10,27,22.10
2016,08,12,10,28,22.10
2016,08,12,10,29,22.10
2016,08,12,10,30,22.10
2016,08,12,10,31,22.10
2016,08,12,10,32,22.10
2016,08,12,10,33,22.10
2016,08,12,10,34,22.10
2016,08,12,10,35,22.20
2016,08,12,10,36,22.30
2016,08,12,10,37,22.40
2016,08,12,10,38,22.40
2016,08,12,10,39,22.50
2016,08,12,10,40,22.50
2016,08,12,10,41,22.60
2016,08,12,10,42,22.70
2016,08,12,10,43,22.80
2016,08,12,10,44,22.90
2016,08,12,10,45,23.00
2016,08,12,10,46,23.00
2016,08,12,10,47,23.10
2016,08,12,10,48,23.10
2016,08,12,10,49,23.20
2016,08,12,10,50,23.30
2016,08,12,10,51,23.30
2016,08,12,10,52,23.40
2016,08,12,10,53,23.50
2016,08,12,10,54,23.60
2016,08,12,10,55,23.70
2016,08,12,10,56,23.80
2016,08,12,10,57,23.80
2016,08,12,10,58,23.90
2016,08,12,10,59,23.90
2016,08,12,11,00,24.00
2016,08,12,11,01,24.00
2016,08,12,11,02,24.00
2016,08,12,11,03,24.00
2016,08,12,11,04,24.00
2016,08,12,11,05,23.90
2016,08,12,11,06,23.90
2016,08,12,11,07,23.90
2016,08,12,11,08,23.80
2016,08,12,11,09,23.70
2016,08,12,11,10,23.70
2016,08,12,11,11,23.60
2016,08,12,11,12,23.50
2016,08,12,11,13,23.50
2016,08,12,11,14,23.50
2016,08,12,11,15,23.40
2016,08,12,11,16,23.40
2016,08,12,11,17,23.40
2016,08,12,11,18,23.50
2016,08,12,11,19,23.50
2016,08,12,11,20,23.50
2016,08,12,11,21,23.60
2016,08,12,11,22,23.60
2016,08,12,11,23,23.70
2016,08,12,11,24,23.70
2016,08,12,11,25,23.80
2016,08,12,11,26,23.80
2016,08,12,11,27,23.80
2016,08,12,11,28,23.90
2016,08,12,11,29,24.00
2016,08,12,11,30,24.00
2016,08,12,11,31,24.10
2016,08,12,11,32,24.20
2016,08,12,11,33,24.30
2016,08,12,11,34,24.40
2016,08,12,11,35,24.50
2016,08,12,11,36,24.50
2016,08,12,11,37,24.60
2016,08,12,11,38,24.70
2016,08,12,11,39,24.70
2016,08,12,11,40,24.70
2016,08,12,11,41,24.70
2016,08,12,11,42,24.70
2016,08,12,11,43,24.80
2016,08,12,11,44,24.80
2016,08,12,11,45,24.80
2016,08,12,11,46,24.80
2016,08,12,11,47,24.90
2016,08,12,11,48,24.90
2016,08,12,11,49,24.90
2016,08,12,11,50,24.90
2016,08,12,11,51,25.00
2016,08,12,11,52,25.10
2016,08,12,11,53,25.20
2016,08,12,11,54,25.20
2016,08,12,11,55,25.30
2016,08,12,11,56,25.30
2016,08,12,11,57,25.40
2016,08,12,11,58,25.50
2016,08,12,11,59,25.60
2016,08,12,12,00,25.60
2016,08,12,12,01,25.70
2016,08,12,12,02,25.80
2016,08,12,12,03,25.80
2016,08,12,12,04,25.80
2016,08,12,12,05,25.80
2016,08,12,12,06,25.80
2016,08,12,12,07,25.80
2016,08,12,12,08,25.80
2016,08,12,12,09,25.80
2016,08,12,12,10,25.80
2016,08,12,12,11,25.90
2016,08,12,12,12,25.90
2016,08,12,12,13,25.90
2016,08,12,12,14,25.80
2016,08,12,12,15,25.80
2016,08,12,12,16,25.80
2016,08,12,12,17,25.70
2016,08,12,12,18,25.70
2016,08,12,12,19,25.70
2016,08,12,12,20,25.70
2016,08,12,12,21,25.70
2016,08,12,12,22,25.60
2016,08,12,12,23,25.50
2016,08,12,12,24,25.40
2016,08,12,12,25,25.30
2016,08,12,12,26,25.30
2016,08,12,12,27,25.40
2016,08,12,12,28,25.40
2016,08,12,12,29,25.50
2016,08,12,12,30,25.60
2016,08,12,12,31,25.70
2016,08,12,12,32,25.80
2016,08,12,12,33,25.80
2016,08,12,12,34,25.80
2016,08,12,12,35,25.70
2016,08,12,12,36,25.70
2016,08,12,12,37,25.70
2016,08,12,12,38,25.70
2016,08,12,12,39,25.70
2016,08,12,12,40,25.80
2016,08,12,12,41,25.80
2016,08,12,12,42,25.80
2016,08,12,12,43,25.90
2016,08,12,12,44,25.90
2016,08,12,12,45,25.90
2016,08,12,12,46,25.90
2016,08,12,12,47,25.90
2016,08,12,12,48,25.90
2016,08,12,12,49,25.90
2016,08,12,12,50,25.90
2016,08,12,12,51,25.80
2016,08,12,12,52,25.90
2016,08,12,12,53,25.90
2016,08,12,12,54,26.00
2016,08,12,12,55,26.10
2016,08,12,12,56,26.20
2016,08,12,12,57,26.30
2016,08,12,12,58,26.30
2016,08,12,12,59,26.30
2016,08,12,13,00,26.40
2016,08,12,13,01,26.50
2016,08,12,13,02,26.50
2016,08,12,13,03,26.50
2016,08,12,13,04,26.50
2016,08,12,13,05,26.50
2016,08,12,13,06,26.40
2016,08,12,13,07,26.40
2016,08,12,13,08,26.30
2016,08,12,13,09,26.30
2016,08,12,13,10,26.30
2016,08,12,13,11,26.30
2016,08,12,13,12,26.30
2016,08,12,13,13,26.40
2016,08,12,13,14,26.40
2016,08,12,13,15,26.40
2016,08,12,13,16,26.40
2016,08,12,13,17,26.50
2016,08,12,13,18,26.60
2016,08,12,13,19,26.60
2016,08,12,13,20,26.60
2016,08,12,13,21,26.70
2016,08,12,13,22,26.70
2016,08,12,13,23,26.70
2016,08,12,13,24,26.80
2016,08,12,13,25,26.80
2016,08,12,13,26,26.90
2016,08,12,13,27,26.90
2016,08,12,13,28,26.90
2016,08,12,13,29,26.90
2016,08,12,13,30,26.90
2016,08,12,13,31,26.90
2016,08,12,13,32,26.90
2016,08,12,13,33,26.90
2016,08,12,13,34,26.90
2016,08,12,13,35,26.90
2016,08,12,13,36,26.90
2016,08,12,13,37,26.90
2016,08,12,13,38,26.90
2016,08,12,13,39,26.90
2016,08,12,13,40,26.80
2016,08,12,13,41,26.80
2016,08,12,13,42,26.80
2016,08,12,13,43,26.80
2016,08,12,13,44,26.70
2016,08,12,13,45,26.60
2016,08,12,13,46,26.50
2016,08,12,13,47,26.50
2016,08,12,13,48,26.50
2016,08,12,13,49,26.60
2016,08,12,13,50,26.60
2016,08,12,13,51,26.60
2016,08,12,13,52,26.60
2016,08,12,13,53,26.50
2016,08,12,13,54,26.50
2016,08,12,13,55,26.50
2016,08,12,13,56,26.50
2016,08,12,13,57,26.60
2016,08,12,13,58,26.60
2016,08,12,13,59,26.60
2016,08,12,14,00,26.60
2016,08,12,14,01,26.60
2016,08,12,14,02,26.70
2016,08,12,14,03,26.70
2016,08,12,14,04,26.80
2016,08,12,14,05,26.80
2016,08,12,14,06,26.80
2016,08,12,14,07,26.70
2016,08,12,14,08,26.60
2016,08,12,14,09,26.60
2016,08,12,14,10,26.50
2016,08,12,14,11,26.50
2016,08,12,14,12,26.40
2016,08,12,14,13,26.40
2016,08,12,14,14,26.40
2016,08,12,14,15,26.30
2016,08,12,14,16,26.30
2016,08,12,14,17,26.30
2016,08,12,14,18,26.40
2016,08,12,14,19,26.50
2016,08,12,14,20,26.60
2016,08,12,14,21,26.70
2016,08,12,14,22,26.80
2016,08,12,14,23,26.90
2016,08,12,14,24,27.00
2016,08,12,14,25,27.00
2016,08,12,14,26,27.00
2016,08,12,14,27,27.00
2016,08,12,14,28,26.90
2016,08,12,14,29,26.80
2016,08,12,14,30,26.80
2016,08,12,14,31,26.80
2016,08,12,14,32,26.90
2016,08,12,14,33,27.00
2016,08,12,14,34,27.10
2016,08,12,14,35,27.20
2016,08,12,14,36,27.40
2016,08,12,14,37,27.40
2016,08,12,14,38,27.40
2016,08,12,14,39,27.40
2016,08,12,14,40,27.40
2016,08,12,14,41,27.40
2016,08,12,14,42,27.30
2016,08,12,14,43,27.30
2016,08,12,14,44,27.30
2016,08,12,14,45,27.30
2016,08,12,14,46,27.30
2016,08,12,14,47,27.30
2016,08,12,14,48,27.30
2016,08,12,14,49,27.30
2016,08,12,14,50,27.30
2016,08,12,14,51,27.30
2016,08,12,14,52,27.30
2016,08,12,14,53,27.30
2016,08,12,14,54,27.30
2016,08,12,14,55,27.30
2016,08,12,14,56,27.30
2016,08,12,14,57,27.40
2016,08,12,14,58,27.40
2016,08,12,14,59,27.40
2016,08,12,15,00,27.40
2016,08,12,15,01,27.30
2016,08,12,15,02,27.30
2016,08,12,15,03,27.30
2016,08,12,15,04,27.30
2016,08,12,15,05,27.20
2016,08,12,15,06,27.20
2016,08,12,15,07,27.20
2016,08,12,15,08,27.20
2016,08,12,15,09,27.30
2016,08,12,15,10,27.40
2016,08,12,15,11,27.40
2016,08,12,15,12,27.50
2016,08,12,15,13,27.40
2016,08,12,15,14,27.40
2016,08,12,15,15,27.40
2016,08,12,15,16,27.50
2016,08,12,15,17,27.50
2016,08,12,15,18,27.60
2016,08,12,15,19,27.60
2016,08,12,15,20,27.60
2016,08,12,15,21,27.60
2016,08,12,15,22,27.60
2016,08,12,15,23,27.60
2016,08,12,15,24,27.60
2016,08,12,15,25,27.60
2016,08,12,15,26,27.60
2016,08,12,15,27,27.50
2016,08,12,15,28,27.40
2016,08,12,15,29,27.40
2016,08,12,15,30,27.50
2016,08,12,15,31,27.50
2016,08,12,15,32,27.50
2016,08,12,15,33,27.50
2016,08,12,15,34,27.50
2016,08,12,15,35,27.40
2016,08,12,15,36,27.40
2016,08,12,15,37,27.40
2016,08,12,15,38,27.30
2016,08,12,15,39,27.30
2016,08,12,15,40,27.30
2016,08,12,15,41,27.40
2016,08,12,15,42,27.40
2016,08,12,15,43,27.40
2016,08,12,15,44,27.40
2016,08,12,15,45,27.30
2016,08,12,15,46,27.30
2016,08,12,15,47,27.30
2016,08,12,15,48,27.30
2016,08,12,15,49,27.30
2016,08,12,15,50,27.30
2016,08,12,15,51,27.30
2016,08,12,15,52,27.40
2016,08,12,15,53,27.50
2016,08,12,15,54,27.60
2016,08,12,15,55,27.70
2016,08,12,15,56,27.80
2016,08,12,15,57,27.80
2016,08,12,15,58,27.90
2016,08,12,15,59,27.90
2016,08,12,16,00,27.90
2016,08,12,16,01,28.00
2016,08,12,16,02,28.00
2016,08,12,16,03,28.00
2016,08,12,16,04,28.00
2016,08,12,16,05,28.10
2016,08,12,16,06,28.10
2016,08,12,16,07,28.20
2016,08,12,16,08,28.20
2016,08,12,16,09,28.30
2016,08,12,16,10,28.30
2016,08,12,16,11,28.40
2016,08,12,16,12,28.40
2016,08,12,16,13,28.40
2016,08,12,16,14,28.40
2016,08,12,16,15,28.50
2016,08,12,16,16,28.60
2016,08,12,16,17,28.70
2016,08,12,16,18,28.80
2016,08,12,16,19,28.90
2016,08,12,16,20,29.00
2016,08,12,16,21,29.10
2016,08,12,16,22,29.20
2016,08,12,16,23,29.20
2016,08,12,16,24,29.10
2016,08,12,16,25,29.00
2016,08,12,16,26,28.80
2016,08,12,16,27,28.60
2016,08,12,16,28,28.50
2016,08,12,16,29,28.40
2016,08,12,16,30,28.30
2016,08,12,16,31,28.30
2016,08,12,16,32,28.30
2016,08,12,16,33,28.40
2016,08,12,16,34,28.40
2016,08,12,16,35,28.50
2016,08,12,16,36,28.50
2016,08,12,16,37,28.50
2016,08,12,16,38,28.50
2016,08,12,16,39,28.50
2016,08,12,16,40,28.40
2016,08,12,16,41,28.30
2016,08,12,16,42,28.20
2016,08,12,16,43,28.10
2016,08,12,16,44,28.00
2016,08,12,16,45,27.90
2016,08,12,16,46,27.80
2016,08,12,16,47,27.80
2016,08,12,16,48,27.80
2016,08,12,16,49,27.90
2016,08,12,16,50,28.00
2016,08,12,16,51,28.10
2016,08,12,16,52,28.10
2016,08,12,16,53,28.20
2016,08,12,16,54,28.10
2016,08,12,16,55,28.10
2016,08,12,16,56,28.00
2016,08,12,16,57,28.00
2016,08,12,16,58,28.10
2016,08,12,16,59,28.20
2016,08,12,17,00,28.30
2016,08,12,17,01,28.40
2016,08,12,17,02,28.40
2016,08,12,17,03,28.40
2016,08,12,17,04,28.30
2016,08,12,17,05,28.30
2016,08,12,17,06,28.30
2016,08,12,17,07,28.40
2016,08,12,17,08,28.40
2016,08,12,17,09,28.40
2016,08,12,17,10,28.40
2016,08,12,17,11,28.50
2016,08,12,17,12,28.50
2016,08,12,17,13,28.50
2016,08,12,17,14,28.50
2016,08,12,17,15,28.50
2016,08,12,17,16,28.50
2016,08,12,17,17,28.60
2016,08,12,17,18,28.60
2016,08,12,17,19,28.60
2016,08,12,17,20,28.60
2016,08,12,17,21,28.70
2016,08,12,17,22,28.70
2016,08,12,17,23,28.80
2016,08,12,17,24,28.80
2016,08,12,17,25,28.80
2016,08,12,17,26,28.80
2016,08,12,17,27,28.90
2016,08,12,17,28,28.90
2016,08,12,17,29,28.90
2016,08,12,17,30,28.90
2016,08,12,17,31,28.90
2016,08,12,17,32,28.90
2016,08,12,17,33,28.80
2016,08,12,17,34,28.80
2016,08,12,17,35,28.80
2016,08,12,17,36,28.70
2016,08,12,17,37,28.70
2016,08,12,17,38,28.70
2016,08,12,17,39,28.70
2016,08,12,17,40,28.70
2016,08,12,17,41,28.70
2016,08,12,17,42,28.60
2016,08,12,17,43,28.60
2016,08,12,17,44,28.60
2016,08,12,17,45,28.60
2016,08,12,17,46,28.70
2016,08,12,17,47,28.70
2016,08,12,17,48,28.70
2016,08,12,17,49,28.70
2016,08,12,17,50,28.80
2016,08,12,17,51,28.80
2016,08,12,17,52,28.80
2016,08,12,17,53,28.90
2016,08,12,17,54,28.90
2016,08,12,17,55,29.00
2016,08,12,17,56,29.10
2016,08,12,17,57,29.20
2016,08,12,17,58,29.20
2016,08,12,17,59,29.20
2016,08,12,18,00,29.20
2016,08,12,18,01,29.20
2016,08,12,18,02,29.20
2016,08,12,18,03,29.10
2016,08,12,18,04,29.10
2016,08,12,18,05,29.00
2016,08,12,18,06,28.90
2016,08,12,18,07,28.90
2016,08,12,18,08,28.80
2016,08,12,18,09,28.70
2016,08,12,18,10,28.60
2016,08,12,18,11,28.50
2016,08,12,18,12,28.40
2016,08,12,18,13,28.40
2016,08,12,18,14,28.40
2016,08,12,18,15,28.40
2016,08,12,18,16,28.50
2016,08,12,18,17,28.50
2016,08,12,18,18,28.60
2016,08,12,18,19,28.60
2016,08,12,18,20,28.60